Wind_Speed
54 55 54 55 56 57 57 57 57 56 56 57 56 55 55 55 56 55 54 54 54 55 55 55 56 56 57 58 58 60 61 63 64 66 67 68 68 68 67 66 66 66 65 66 66 66 65 63 61 59 58 57 57 56 56 56 55 55 54 53 51 50 47 45 44 44 44 44 46 47 50 49 48 48 47 44 42 41 41 41 39 36 34 33 33
53 54 54 55 57 58 59 58 58 58 57 58 58 57 57 57 56 55 54 54 54 54 55 56 58 59 59 60 61 63 64 65 67 68 69 70 70 69 68 68 67 65 65 64 64 63 61 59 57 56 56 55 55 55 55 55 55 54 53 51 49 47 45 43 43 45 47 48 50 50 50 48 48 46 44 41 40 40 40 38 36 33 32 32 32
54 55 56 57 58 60 60 61 61 61 61 61 61 60 60 59 58 58 57 57 57 57 58 59 60 61 62 63 64 65 66 67 69 69 70 70 70 69 69 67 65 63 62 61 60 59 57 56 55 55 54 54 54 54 55 55 55 53 52 49 46 44 43 43 45 47 49 50 50 50 49 47 46 43 41 39 39 39 38 35 33 32 32 32 31
57 58 59 60 60 61 62 63 64 64 63 63 63 63 63 62 61 61 60 60 61 62 62 63 63 63 64 65 65 66 67 68 69 69 69 69 70 69 68 65 62 60 59 58 57 56 55 54 54 54 54 54 55 55 55 55 54 52 49 46 43 43 42 44 47 49 50 49 49 48 47 45 43 40 39 39 38 37 34 33 32 32 32 31 30
58 60 61 62 63 63 64 65 66 66 64 64 64 64 64 64 63 63 63 63 64 65 66 66 66 66 66 67 67 68 68 69 69 69 69 70 69 68 65 61 59 57 56 56 55 54 54 54 54 54 55 55 55 55 55 54 51 49 46 43 42 43 44 47 49 49 48 48 47 46 44 42 39 38 38 38 36 34 32 32 32 32 31 30 30
60 63 64 64 65 65 65 66 67 67 66 65 65 65 65 65 65 65 65 66 67 68 68 67 68 68 69 69 69 69 70 70 70 70 70 69 67 64 61 58 57 56 55 55 54 54 54 54 54 54 55 55 56 56 54 50 47 44 43 42 43 44 46 49 49 47 46 46 45 43 41 39 37 37 37 35 33 32 32 32 32 31 30 30 29
60 62 64 64 65 66 66 67 67 67 67 66 66 66 66 66 66 67 68 69 69 68 67 67 68 69 69 69 69 69 70 70 70 69 68 65 63 60 58 57 56 55 55 55 55 54 54 54 54 55 55 56 56 54 50 45 42 41 41 42 44 46 48 48 46 44 44 43 42 40 38 37 37 36 34 32 31 31 31 32 31 30 30 30 29
57 59 59 60 61 62 62 62 63 63 64 65 65 65 66 66 66 67 67 67 66 66 66 66 67 68 68 68 69 69 69 69 68 66 63 62 60 59 58 57 56 56 55 55 55 55 55 54 54 55 55 55 53 49 43 40 40 40 41 43 45 47 46 44 43 43 42 41 39 37 36 36 36 34 31 29 30 31 31 31 30 30 29 29 28
56 56 56 56 57 57 57 57 58 59 60 61 62 62 62 62 62 63 63 63 63 64 64 65 66 67 67 68 68 67 67 66 64 62 61 60 60 59 58 57 56 56 55 55 55 55 54 53 53 54 53 51 47 42 38 38 39 40 42 44 45 44 42 41 41 40 39 38 36 35 35 35 33 30 28 28 29 29 30 30 29 29 28 28 27
58 57 57 57 56 56 56 56 56 57 58 58 59 59 60 60 61 62 62 62 63 63 64 64 64 65 65 65 64 64 63 62 61 61 60 60 59 58 57 56 55 55 54 54 53 52 51 51 51 50 47 44 39 37 37 38 40 42 44 43 41 40 39 39 39 38 37 35 34 35 34 31 28 27 26 27 28 27 28 28 28 27 27 26 26
59 59 59 58 58 57 56 56 56 57 57 57 57 57 58 59 61 62 62 62 62 62 62 62 62 62 62 62 61 61 61 60 60 59 58 57 56 55 54 54 53 52 51 50 48 48 47 47 46 43 40 36 35 36 38 39 41 42 41 39 38 38 37 37 37 36 34 34 34 33 30 27 25 26 26 26 26 26 26 27 27 26 25 25 25
59 59 59 59 59 58 57 57 57 57 56 56 56 57 57 58 59 60 60 59 59 60 60 60 60 60 60 59 59 59 58 57 56 55 54 53 52 52 52 51 50 48 45 44 44 44 43 42 40 36 33 33 34 36 38 38 38 38 37 36 36 36 36 35 35 34 34 33 33 30 26 25 25 26 26 26 26 25 25 25 26 25 26 26 25
56 56 56 56 56 56 57 57 56 55 55 55 55 56 56 57 58 58 57 57 58 58 58 58 58 57 56 55 55 54 54 53 51 50 49 49 49 48 48 46 44 43 41 40 40 40 39 36 33 30 31 34 35 36 35 35 35 34 35 35 35 35 35 34 34 33 33 32 30 27 25 25 25 26 26 27 26 25 24 24 25 25 25 26 26
54 54 54 52 53 53 53 54 54 54 53 54 53 53 54 55 55 55 55 55 55 54 54 53 52 52 51 51 51 50 49 49 48 47 46 46 46 44 42 41 39 38 37 37 36 35 33 29 28 30 33 34 34 33 33 33 33 33 33 34 34 33 33 33 33 33 32 30 27 25 25 25 26 27 27 28 28 26 24 24 24 25 25 26 27
52 53 53 53 55 55 53 51 51 52 52 52 51 52 52 52 52 52 51 50 49 49 49 49 49 49 49 48 48 48 47 46 45 45 44 43 41 40 38 37 36 36 34 32 31 29 27 26 29 31 33 32 32 31 31 32 32 33 32 32 32 32 31 31 31 31 29 27 26 25 25 25 26 28 29 30 29 27 25 24 24 25 26 26 27
51 51 51 52 53 53 51 49 49 49 49 50 50 50 49 49 49 49 47 47 47 47 48 49 49 48 47 47 46 45 45 44 44 43 42 40 38 36 34 33 33 32 30 28 26 24 25 28 31 31 31 30 30 30 31 32 32 32 32 32 31 30 29 29 29 28 26 25 25 25 25 26 28 30 31 31 29 26 24 24 24 25 26 27 28
48 47 48 49 50 50 49 48 48 47 48 49 47 46 46 47 48 47 47 48 49 50 50 49 48 46 45 43 41 40 40 40 41 41 40 37 35 33 31 31 30 28 26 23 22 24 28 30 29 28 28 29 29 30 31 31 31 32 32 32 30 28 27 27 26 25 24 25 25 26 27 28 30 31 30 29 26 24 24 24 24 25 26 28 29
45 46 47 48 49 50 50 49 47 47 49 48 45 45 47 47 48 48 49 50 50 49 46 44 42 40 38 35 32 32 34 35 36 36 35 32 30 29 28 27 26 25 22 20 22 26 28 27 25 26 28 28 29 30 31 30 30 31 32 31 29 27 26 25 24 23 24 24 25 26 27 28 29 28 27 26 24 23 22 23 24 25 27 28 29
47 48 49 50 51 50 50 50 50 50 49 47 47 47 45 44 43 44 45 44 43 39 37 36 34 31 29 26 27 29 29 28 28 28 28 27 26 26 25 24 24 21 18 19 23 26 26 25 25 28 30 30 31 31 31 30 29 30 30 29 28 26 24 23 23 24 24 24 24 24 26 26 26 25 25 25 25 24 24 24 25 26 27 28 30
49 50 51 52 51 50 49 50 51 51 49 48 48 44 40 38 38 38 36 32 30 29 29 28 26 24 23 23 25 28 26 23 22 22 23 24 24 24 23 23 21 17 16 20 24 26 27 26 28 31 32 32 32 31 30 29 28 28 27 27 26 24 23 23 24 24 24 23 23 24 25 25 24 24 25 26 26 27 27 27 28 29 29 30 32
51 51 52 52 52 51 50 51 51 50 49 49 46 40 37 37 37 36 32 27 27 28 28 26 24 23 23 24 25 26 24 23 23 22 22 23 23 23 22 21 18 15 17 21 23 26 27 27 30 33 34 33 32 31 30 29 28 26 26 26 25 23 23 24 25 25 24 23 24 25 25 24 23 24 25 25 25 26 26 27 27 28 29 30 32
50 50 51 52 52 51 51 52 52 50 50 50 46 39 37 39 39 38 34 31 31 31 29 29 28 26 26 26 25 24 24 25 26 24 23 23 23 23 21 19 16 15 18 21 24 28 28 28 31 34 34 32 31 30 30 29 28 25 24 25 25 24 24 25 26 26 25 25 26 26 24 21 22 23 23 22 22 21 22 23 24 26 28 29 29
49 51 53 53 52 52 53 54 53 53 53 50 46 42 40 40 39 38 37 35 35 35 32 31 31 30 29 29 28 24 24 28 29 26 24 23 23 22 21 19 17 17 20 22 26 30 29 29 33 35 34 33 31 31 31 30 27 24 24 25 26 26 25 26 26 26 27 27 26 24 20 18 20 21 20 20 19 20 21 23 24 25 25 25 25
51 52 52 52 53 54 55 55 55 56 54 50 47 44 40 39 41 41 41 39 38 36 34 34 35 34 32 32 30 24 24 29 29 27 25 25 23 21 20 19 18 19 22 24 29 32 30 30 34 36 35 33 33 32 32 30 26 24 25 26 28 28 27 27 28 27 27 25 24 21 16 17 20 21 20 20 20 21 22 23 23 22 21 21 21
53 52 51 52 54 55 55 55 55 56 55 51 49 45 40 39 43 44 44 43 39 34 34 35 35 35 34 32 30 26 26 29 29 28 27 26 24 21 19 19 19 21 24 26 31 32 30 32 36 36 35 34 34 33 32 29 26 26 28 28 28 30 29 28 29 29 27 24 23 19 16 20 22 21 21 21 22 22 22 22 21 21 21 19 18
52 52 54 55 56 57 56 55 55 55 55 54 50 47 43 42 44 46 46 44 39 34 34 34 32 33 32 28 27 26 26 29 29 26 27 26 23 20 19 19 20 22 24 27 32 31 30 33 35 35 35 35 35 34 32 29 28 30 29 27 27 29 30 29 29 29 27 24 22 19 18 21 22 21 22 23 23 22 21 21 21 22 21 19 18
54 55 56 58 60 60 58 57 56 55 56 57 53 49 47 46 46 47 46 44 40 36 35 34 31 28 25 22 22 23 26 29 27 24 25 24 21 20 20 20 20 22 25 30 33 30 30 34 35 35 35 36 37 36 33 30 31 31 28 25 25 28 29 29 29 29 27 24 21 18 18 21 22 21 22 23 22 21 21 21 22 23 21 19 19
56 56 57 56 56 57 55 54 54 55 57 57 55 50 49 49 47 47 46 44 42 38 37 37 35 28 23 23 22 23 27 28 27 25 24 21 20 21 21 21 21 22 27 31 31 28 31 34 33 34 36 39 41 39 34 32 31 29 26 26 28 28 29 28 27 26 25 23 19 17 19 21 22 22 23 23 22 21 22 22 23 23 21 20 20
57 55 53 49 48 50 48 47 48 50 52 53 53 50 50 50 48 47 47 45 42 39 36 37 37 31 26 26 24 25 29 28 27 26 23 21 22 22 22 22 22 24 28 29 27 28 32 31 32 37 40 43 44 41 37 34 32 29 27 28 29 28 28 27 26 25 24 22 18 17 20 22 22 23 23 24 22 22 22 23 23 22 20 19 20
58 55 52 49 48 49 50 51 51 50 49 49 49 50 52 50 48 48 48 47 43 39 38 37 37 33 28 27 26 28 28 27 26 25 22 22 22 23 23 24 25 26 27 26 25 28 29 29 35 42 45 46 44 41 38 35 32 30 28 28 29 28 27 27 26 24 23 21 20 20 22 22 22 23 25 25 23 21 21 22 23 21 19 19 18
61 59 57 54 52 53 52 50 52 55 53 51 51 54 55 51 48 47 47 46 43 40 39 39 38 35 32 29 27 29 26 23 23 22 20 21 23 24 24 24 26 28 27 25 26 26 26 31 39 45 47 44 41 39 38 35 32 30 29 28 28 27 27 26 24 23 21 20 21 22 23 22 23 24 25 24 21 19 20 21 21 19 17 17 16
63 62 59 56 55 56 53 47 50 54 53 53 55 56 53 50 48 45 44 44 42 39 38 39 38 35 33 30 28 29 24 20 20 20 20 22 24 24 23 23 25 28 27 25 25 24 27 34 41 46 41 36 39 41 39 36 33 31 29 28 27 26 26 26 24 23 21 20 22 22 23 24 25 26 25 23 20 19 20 20 19 17 16 15 14
58 60 60 59 56 56 56 55 56 57 57 58 59 57 52 50 49 44 41 42 39 37 36 36 38 37 34 30 29 29 26 21 21 21 21 22 24 24 23 23 26 29 28 27 25 23 29 36 42 42 32 33 43 45 41 39 35 32 29 27 26 26 26 26 25 24 23 22 23 23 24 25 25 25 23 22 21 20 19 18 17 16 14 14 13
56 57 58 58 56 55 57 57 58 59 60 61 60 58 54 51 49 43 38 39 37 34 33 32 35 37 34 31 32 32 30 26 24 22 21 22 24 24 24 23 25 26 25 25 24 24 32 38 41 38 32 38 45 44 42 40 35 32 28 26 25 24 25 26 25 25 24 24 24 24 25 24 23 21 21 21 21 20 19 17 16 15 15 14 14
54 53 51 52 53 55 57 58 59 59 59 60 59 56 53 52 49 41 38 38 36 34 32 29 32 35 34 33 33 32 30 28 25 23 22 23 23 23 23 23 24 24 21 19 21 27 35 39 40 38 38 42 44 44 43 39 35 31 28 26 24 24 24 25 25 24 25 25 24 24 23 22 21 20 20 20 20 19 19 17 15 15 15 14 14
46 46 44 46 48 50 54 56 58 59 60 62 61 58 55 52 45 38 36 37 36 35 31 29 32 35 36 35 32 30 28 27 25 23 22 23 23 23 24 25 25 23 20 17 21 30 36 39 40 39 40 43 44 45 41 37 34 30 26 24 24 25 25 25 26 26 26 26 25 24 22 20 20 19 19 20 19 18 17 17 17 16 15 14 13
41 42 43 44 45 47 50 53 54 55 57 59 60 58 54 51 43 34 34 36 37 35 32 30 32 36 37 35 31 30 30 29 26 25 24 25 25 23 23 26 26 22 19 19 24 33 37 39 41 41 41 43 45 44 40 35 32 30 26 23 25 26 25 25 26 27 27 26 25 25 22 19 19 19 19 20 19 18 18 19 20 20 18 15 13
38 40 41 40 40 44 47 46 45 46 50 53 54 53 50 48 42 35 36 38 39 37 33 31 31 35 37 34 30 29 30 29 28 26 26 27 26 24 24 27 27 21 20 24 29 35 37 39 42 42 43 43 44 44 41 35 31 30 26 25 26 25 25 26 27 28 27 26 25 23 22 21 21 22 22 21 19 19 20 20 21 20 19 17 16
35 35 35 34 38 44 46 40 33 34 41 42 43 46 46 45 41 37 39 41 41 39 36 31 30 34 34 31 29 29 29 27 26 27 26 28 28 27 27 28 27 23 24 29 34 36 37 40 43 43 43 43 44 44 40 35 32 30 26 27 27 25 27 28 28 27 26 25 24 23 22 23 23 23 22 21 20 20 21 21 20 19 19 20 20
33 31 31 34 38 43 43 34 28 33 39 35 31 35 39 39 38 37 40 42 41 39 38 32 30 34 33 30 28 29 30 28 26 26 26 28 30 28 28 29 29 28 29 34 37 39 40 42 43 42 43 44 44 43 40 36 34 30 27 28 28 28 28 28 27 26 25 24 24 23 22 22 23 21 20 20 21 20 20 20 20 20 21 22 22
38 34 34 35 32 31 34 32 30 33 36 33 28 29 31 33 34 36 39 41 40 38 36 31 31 35 34 31 29 28 29 29 27 26 27 29 29 29 28 28 29 31 32 35 37 39 41 41 42 43 44 45 44 42 40 38 34 30 28 28 28 29 28 28 27 25 24 23 23 22 22 22 21 20 19 20 20 19 18 19 20 21 22 22 22
45 38 35 29 22 24 28 32 32 30 31 34 35 35 34 30 30 32 35 37 38 36 35 31 31 35 35 33 31 27 26 26 28 28 29 30 30 31 30 30 30 32 35 36 37 39 40 42 43 44 45 45 44 41 40 38 34 30 28 28 28 29 28 27 26 24 24 24 23 22 21 21 21 20 20 20 20 20 19 18 19 21 22 22 22
44 35 30 25 26 29 27 28 31 30 32 34 35 37 37 31 27 27 29 31 33 34 34 31 32 36 35 34 32 29 29 30 31 31 32 32 32 33 33 35 35 35 36 37 38 40 41 43 45 46 46 45 43 41 39 38 34 31 28 27 28 28 28 26 25 24 23 24 24 23 23 22 20 20 20 21 20 21 21 20 20 22 23 22 22
40 32 30 32 33 33 29 31 36 35 34 35 36 37 36 32 26 23 25 27 28 31 32 32 35 37 37 37 35 33 33 35 34 32 32 33 34 35 36 37 37 36 37 38 39 41 43 44 45 46 45 43 41 39 39 37 34 31 28 27 28 28 28 27 25 24 23 24 25 26 26 25 23 22 23 24 24 23 23 23 24 25 26 27 27
43 38 38 40 39 38 38 39 40 38 37 39 41 40 37 34 30 24 24 26 27 29 32 35 38 38 37 37 37 35 33 34 34 34 35 34 33 35 35 34 34 35 38 40 41 42 44 44 45 45 43 41 39 38 38 36 33 31 29 27 27 28 28 28 26 25 24 25 26 27 29 29 27 27 27 27 26 27 28 28 29 30 31 31 31
50 46 44 45 44 46 49 45 42 44 45 44 42 40 37 36 34 29 26 28 30 32 37 39 39 38 36 35 35 35 34 33 33 34 35 35 34 35 35 35 36 38 41 42 42 43 44 44 44 43 41 39 37 37 37 34 32 30 29 27 28 29 29 29 27 25 25 26 27 29 30 31 31 31 30 29 29 31 31 32 33 32 32 31 32
51 49 46 47 47 48 51 49 45 46 48 46 41 38 37 37 37 34 31 31 33 35 41 43 41 40 37 35 33 34 37 37 36 35 34 34 35 36 37 38 39 41 44 44 43 43 43 43 43 41 38 36 35 36 36 33 31 30 28 28 28 29 29 29 27 26 25 25 27 28 30 32 33 33 33 33 33 32 32 32 32 31 31 32 34
51 50 48 48 49 47 47 48 47 45 45 44 41 40 40 38 39 38 37 36 36 38 43 46 46 44 41 38 36 36 40 41 40 39 38 36 37 38 39 40 41 42 44 45 44 43 41 40 39 36 35 34 35 36 35 33 31 30 29 29 29 29 30 29 28 26 25 25 26 28 30 32 34 34 35 35 35 34 33 34 34 33 34 36 38
49 51 50 49 49 48 46 46 46 45 45 43 43 44 44 42 42 43 43 43 43 42 44 48 49 47 44 41 39 39 42 44 45 44 42 41 41 40 38 39 40 42 44 45 43 40 38 36 35 33 33 33 35 36 34 33 32 31 31 30 30 30 30 29 27 26 25 25 26 27 29 32 34 35 35 35 36 35 34 35 35 37 38 40 40
47 51 51 49 48 48 47 46 44 44 44 45 47 48 47 47 46 46 47 47 47 46 46 48 50 49 46 44 42 41 43 45 47 47 45 44 43 41 39 39 39 40 41 42 40 38 36 34 32 32 32 33 34 34 33 33 33 33 33 33 33 33 31 29 27 26 26 26 27 27 28 31 33 36 36 36 36 35 36 37 38 39 41 41 41
47 48 49 48 49 48 47 46 45 44 45 46 49 50 50 49 48 49 50 48 48 49 48 48 49 50 48 46 45 45 44 45 46 48 48 46 45 43 41 40 38 37 38 39 38 36 35 33 32 32 31 32 32 31 30 31 33 34 34 35 35 34 32 29 27 27 27 26 27 27 28 29 31 34 37 38 37 36 35 36 38 39 40 40 39
Wind_Direction
269 270 271 273 275 277 278 279 280 281 281 280 281 281 281 282 283 283 284 284 285 285 284 284 284 284 285 286 287 289 292 292 293 294 296 297 299 300 300 301 302 302 302 303 303 304 304 305 305 306 306 306 307 306 306 306 306 307 307 307 307 306 303 301 299 298 299 301 303 303 303 302 301 300 299 298 298 297 298 297 296 295 295 295 294
270 271 272 273 275 276 277 278 280 282 281 281 281 281 281 281 281 281 283 284 284 285 285 285 284 285 285 285 286 287 289 290 292 293 294 296 297 299 300 301 302 302 303 303 304 304 305 305 306 306 306 306 306 306 306 306 307 307 307 307 306 304 301 299 298 299 301 302 302 302 301 301 300 299 298 298 297 298 298 297 296 295 296 295 293
270 271 272 272 273 275 276 278 280 281 281 281 280 281 281 280 280 281 283 283 284 285 285 285 285 285 285 285 285 286 288 290 291 293 294 296 297 298 300 301 302 303 303 304 304 305 305 306 306 306 306 306 306 306 306 306 307 306 306 306 304 300 297 297 299 301 302 302 302 301 300 300 300 299 298 298 298 298 297 296 296 296 295 293 290
272 273 273 273 273 274 275 277 279 280 281 280 280 280 280 281 282 283 283 284 284 284 284 285 285 285 285 285 285 287 288 290 292 293 294 296 297 298 300 301 302 303 304 304 305 305 306 306 306 306 306 306 306 306 306 306 306 306 305 303 300 296 295 297 300 301 301 301 301 300 300 300 300 299 299 299 299 298 296 295 295 295 293 291 287
272 273 273 274 274 274 275 276 278 279 280 279 279 279 280 281 282 283 283 284 284 285 285 285 285 284 285 285 286 287 288 290 291 292 294 295 297 298 299 301 302 303 304 304 305 305 305 306 305 306 306 306 306 306 305 306 306 304 303 300 296 294 294 299 301 300 300 300 300 300 300 300 299 299 299 299 298 297 295 295 295 294 292 288 284
272 272 272 273 273 274 274 275 276 277 278 279 279 279 279 280 281 282 282 283 285 285 285 285 285 284 285 285 286 287 288 289 290 292 294 295 296 298 299 301 302 303 304 304 304 304 305 305 305 305 305 305 305 305 305 305 304 303 300 297 294 294 296 300 300 299 299 300 300 300 300 299 299 300 300 298 297 296 295 296 296 294 290 286 283
272 271 271 272 272 272 273 273 274 275 277 278 278 278 279 279 280 281 282 283 284 284 284 285 285 285 285 286 286 287 288 289 290 292 293 295 296 297 299 300 301 302 302 303 303 303 304 304 305 305 305 304 304 304 304 304 302 300 298 295 294 296 298 299 299 299 300 300 300 300 299 298 299 300 299 298 296 296 296 297 296 293 289 285 283
271 271 271 271 271 272 272 273 274 274 275 276 277 278 278 279 279 280 282 283 284 284 284 284 285 285 286 286 287 287 288 289 291 292 293 294 296 297 298 299 300 300 301 301 302 303 303 304 304 304 304 303 303 304 304 302 301 298 296 295 296 297 298 299 299 300 300 300 300 299 298 299 300 300 299 297 296 297 298 297 295 292 288 285 283
270 270 271 272 272 273 273 274 275 275 276 276 277 278 279 280 280 281 282 283 284 284 284 285 285 286 286 287 287 288 288 290 291 292 293 294 295 296 297 297 298 299 300 300 301 302 303 303 302 302 302 302 304 304 303 301 299 297 296 296 297 298 299 299 300 301 301 300 299 298 299 300 300 299 298 298 298 299 298 297 295 293 288 285 284
269 270 271 272 273 274 275 275 276 277 277 278 279 280 280 281 281 281 282 283 284 284 285 285 286 286 286 287 288 289 290 291 291 292 293 294 295 295 296 296 297 298 299 300 301 302 302 301 300 300 301 302 304 304 301 299 298 297 298 298 299 300 301 301 302 302 301 300 299 300 300 300 299 298 298 298 300 301 298 296 295 293 288 285 285
269 270 272 272 273 274 276 277 277 278 279 280 281 282 282 282 281 281 282 283 284 285 285 285 286 287 288 289 289 290 290 291 292 293 293 294 294 295 295 296 297 299 300 301 301 300 300 299 299 300 301 302 304 303 301 299 299 299 299 300 301 302 303 303 303 302 301 300 301 301 300 298 296 295 297 299 301 301 298 294 293 291 288 285 286
271 271 272 273 274 274 275 277 278 280 281 282 283 283 283 283 282 283 283 284 285 285 286 286 288 288 289 289 289 290 291 291 292 293 293 293 294 294 295 297 298 299 300 300 299 299 298 298 299 301 302 304 305 303 301 300 300 300 301 302 303 304 304 304 304 302 301 302 303 301 298 295 293 294 296 299 300 300 297 293 291 290 289 287 287
272 272 273 274 275 275 275 276 278 281 282 283 283 283 284 283 284 284 285 285 286 287 287 288 289 289 289 289 290 291 291 292 293 293 293 293 294 295 296 298 299 299 298 298 298 298 298 298 300 302 305 306 304 303 302 301 301 302 303 304 305 305 305 305 304 303 304 305 304 300 296 293 292 293 295 298 299 299 296 292 289 289 289 288 288
271 271 272 274 275 277 278 278 279 281 282 283 284 284 284 285 285 286 287 288 288 288 288 288 289 289 289 290 291 291 292 293 293 293 293 294 295 296 297 298 297 296 296 297 297 296 297 299 302 306 306 305 303 302 302 303 304 305 305 305 305 305 305 304 304 305 306 305 302 298 294 292 291 292 295 297 298 296 294 291 289 288 289 289 290
271 271 272 273 275 278 280 281 282 282 282 283 285 285 286 287 288 289 290 290 290 289 288 288 289 290 291 291 292 293 294 293 293 293 293 294 295 296 296 295 294 294 295 295 295 294 298 303 306 307 305 303 303 302 304 305 306 306 306 306 305 305 304 304 305 305 306 305 301 297 294 292 291 293 296 297 297 295 291 289 287 287 288 289 291
271 272 273 274 277 280 282 284 284 284 284 285 286 287 288 290 292 292 292 291 291 289 288 289 291 291 291 292 293 295 295 294 293 293 293 293 294 294 293 292 292 293 294 292 292 296 303 307 307 306 303 303 303 304 306 307 307 307 307 307 305 304 305 305 306 306 306 304 301 298 295 293 293 296 297 298 298 294 289 288 286 285 287 288 290
273 274 275 277 279 281 284 285 285 285 286 287 288 289 291 294 295 294 293 291 290 290 290 291 292 292 292 294 297 297 296 294 293 291 291 292 293 291 290 290 291 292 291 288 293 301 305 306 306 306 306 305 305 307 308 307 307 308 309 307 306 306 307 307 307 307 307 305 302 298 296 295 297 299 300 300 298 294 290 288 287 286 287 288 290
275 276 278 279 280 282 283 284 284 286 287 287 289 292 295 298 297 294 293 292 292 292 293 294 294 294 296 298 300 299 296 294 292 291 292 292 290 288 288 289 290 290 285 286 300 306 305 304 305 310 311 308 308 308 308 308 307 308 309 307 307 309 309 308 308 308 308 305 302 299 298 298 300 302 303 303 300 296 293 291 289 288 288 289 292
275 276 278 279 279 281 281 282 284 285 287 287 290 295 298 300 300 299 297 295 296 296 298 300 299 299 301 301 302 300 299 299 298 297 294 291 288 287 288 288 288 283 276 289 305 307 304 300 303 311 314 312 310 310 308 307 308 309 309 307 307 310 311 310 309 308 307 305 302 301 301 302 303 305 306 305 302 299 297 294 293 292 293 294 296
276 277 278 278 279 280 281 282 283 285 286 287 291 296 297 297 302 306 305 303 304 304 302 302 302 302 303 303 304 304 304 307 307 304 298 292 289 288 288 287 283 273 272 290 303 305 302 298 303 311 313 312 311 310 309 308 310 310 308 306 306 308 310 308 307 307 307 305 304 303 303 303 303 305 305 304 304 302 301 299 299 299 299 299 297
276 277 278 278 279 281 282 282 282 283 284 286 289 291 291 292 296 301 302 303 307 305 297 292 293 295 299 303 305 304 306 312 312 307 302 296 291 289 289 284 275 265 274 289 300 304 301 299 305 310 311 311 311 310 309 309 310 309 306 303 302 305 308 306 305 306 305 304 304 303 303 303 303 304 304 304 305 305 304 303 303 302 300 299 298
275 276 277 278 280 281 282 282 282 282 283 285 285 284 285 286 287 289 290 293 299 301 292 284 285 287 293 299 301 299 303 310 311 307 303 297 291 289 287 279 269 263 273 286 301 307 302 299 305 310 310 310 310 310 309 309 309 306 301 298 300 305 307 305 303 303 303 304 304 302 301 304 305 306 307 309 310 310 310 308 307 306 304 303 302
275 277 279 280 280 280 281 282 282 282 283 284 283 282 281 281 281 281 281 286 294 297 290 283 284 288 292 296 298 297 301 307 307 303 300 296 291 287 283 277 267 264 272 283 301 309 302 299 307 310 309 309 309 309 308 309 307 302 297 298 301 305 306 302 300 302 304 304 306 303 304 310 310 310 311 312 314 314 314 314 313 312 311 310 307
277 280 281 281 280 281 281 281 282 282 282 283 282 282 280 274 275 276 276 282 290 292 287 285 287 290 294 296 294 293 300 304 302 298 297 295 290 283 277 273 267 267 274 284 300 307 302 302 309 310 310 309 309 308 308 308 304 298 298 301 301 303 305 303 301 305 306 305 307 305 306 314 313 312 313 313 313 314 318 321 321 322 322 320 315
280 281 282 282 282 282 281 281 281 281 281 282 280 281 278 271 273 276 277 280 283 284 284 284 285 287 291 293 288 290 299 299 294 293 296 294 287 278 270 268 268 272 277 287 301 304 302 305 309 310 311 310 310 310 309 307 301 298 302 304 304 305 308 307 305 306 307 306 308 307 308 313 312 312 314 316 315 318 324 326 326 328 329 330 329
281 281 282 284 284 283 282 281 281 280 281 281 281 280 276 272 275 278 279 281 277 275 279 280 281 284 286 286 282 287 294 291 289 292 294 291 282 273 267 267 270 275 282 293 302 302 303 309 310 311 312 312 311 311 309 304 299 302 306 308 306 305 308 309 307 307 306 305 306 308 309 309 307 308 313 316 318 322 326 325 327 330 333 338 341
279 280 281 283 285 284 284 282 280 279 279 280 280 279 275 274 276 276 277 279 274 271 272 272 276 280 278 274 275 283 287 284 284 287 288 285 277 268 266 269 274 281 289 298 301 299 306 311 311 313 316 317 316 312 307 301 300 305 307 306 303 301 304 307 307 306 305 303 303 303 301 300 300 303 307 312 319 323 324 323 326 330 335 341 346
278 279 283 285 285 284 284 282 280 279 277 278 279 278 277 277 276 274 274 275 272 269 267 268 272 272 266 262 268 283 285 280 278 280 280 275 268 265 268 272 278 285 292 298 297 299 309 313 314 319 321 322 319 311 304 300 301 305 305 302 300 300 302 303 303 302 302 303 302 299 295 293 294 299 302 308 315 319 321 322 324 329 336 341 347
281 282 284 281 275 276 280 282 284 282 279 278 278 278 280 279 276 274 274 273 270 266 264 269 272 267 259 255 264 284 284 276 276 277 272 265 265 266 269 272 275 283 292 295 294 303 312 313 318 324 325 324 318 308 304 304 303 303 302 300 300 300 300 300 299 298 299 301 299 297 294 291 291 296 301 306 312 314 317 319 321 329 337 341 348
279 278 275 269 267 271 275 280 281 278 280 281 279 282 284 281 278 276 275 273 268 263 259 266 270 262 254 252 264 280 277 270 270 272 268 263 267 269 270 272 275 284 294 295 298 306 307 311 322 328 329 325 317 310 308 306 303 303 302 301 301 300 300 299 297 295 298 299 294 291 291 289 291 296 299 305 310 311 312 315 320 329 335 339 346
275 273 269 265 266 269 273 278 277 273 275 279 281 285 287 283 281 278 274 269 264 260 257 260 262 256 252 252 265 273 266 263 266 268 268 266 269 271 274 278 280 289 295 294 300 302 302 314 324 330 331 324 318 317 314 308 304 304 303 301 299 298 298 298 294 292 296 297 291 288 287 288 293 297 298 303 307 306 305 311 319 327 331 334 340
273 274 271 268 265 265 268 270 271 273 275 278 283 287 287 285 282 278 269 262 259 258 256 258 256 250 251 254 263 264 257 261 267 267 267 266 269 272 279 280 279 289 292 294 300 298 305 319 325 331 331 319 320 323 317 312 307 304 302 299 298 297 297 295 291 290 292 294 293 290 287 288 291 293 296 303 304 302 303 309 317 322 326 327 332
273 274 273 272 269 266 266 266 268 273 276 279 283 284 285 285 281 277 267 258 256 255 256 258 251 244 249 256 259 258 256 262 269 271 267 266 270 275 282 280 279 288 292 296 298 298 312 320 324 330 325 313 323 326 318 314 308 303 300 296 296 297 297 293 290 290 291 291 292 291 288 288 290 293 298 302 302 300 301 306 312 316 319 321 324
275 275 274 273 271 269 267 267 269 271 275 278 280 280 283 282 277 275 266 253 249 250 252 253 247 243 249 255 257 257 260 262 267 272 269 268 273 279 283 279 282 288 294 300 298 302 315 319 323 327 319 317 325 326 319 313 308 302 299 295 294 296 295 294 293 291 290 290 291 289 289 290 294 298 299 299 300 300 301 306 308 309 312 313 316
277 277 275 273 271 270 268 268 269 271 274 277 278 279 282 280 274 271 263 249 242 243 245 245 244 245 250 252 253 257 261 261 263 267 267 268 272 277 277 275 281 286 292 300 295 304 316 318 320 322 319 321 326 327 321 313 308 303 298 295 294 295 294 295 297 293 290 291 290 288 290 294 296 298 296 296 299 300 302 306 307 308 308 308 308
275 276 276 275 273 272 272 271 272 272 273 275 276 277 278 277 272 265 258 245 236 238 239 239 242 246 250 251 251 256 261 261 260 264 265 264 268 272 272 272 277 281 283 283 287 303 313 315 316 317 319 323 327 328 321 311 307 302 298 295 295 296 293 293 297 293 290 290 289 287 288 292 295 295 295 298 299 299 299 297 299 303 304 307 306
263 268 274 276 280 282 279 278 278 278 276 274 274 274 273 272 268 258 252 242 233 234 236 239 245 249 251 252 254 256 259 259 258 261 263 259 263 268 267 267 272 277 272 269 287 302 307 308 312 315 318 323 328 328 320 310 304 299 297 294 296 299 297 297 296 292 290 289 287 285 283 285 287 290 295 298 297 295 292 288 291 296 299 304 302
253 262 270 278 289 291 286 283 282 281 279 275 271 270 268 267 266 255 247 241 233 233 236 242 249 249 249 251 255 255 256 259 258 259 259 256 260 265 264 266 272 271 257 264 289 299 300 303 309 313 316 322 327 327 322 312 302 298 295 295 298 300 299 300 297 293 290 286 285 283 280 280 281 285 291 295 295 292 288 286 289 292 296 300 300
253 259 267 281 294 290 286 285 280 274 275 276 273 272 270 266 264 253 244 239 234 234 236 241 246 245 247 251 253 253 255 258 257 257 256 254 260 264 263 266 268 261 255 270 289 295 297 301 305 309 314 320 325 325 322 313 302 297 293 294 297 298 298 298 296 293 289 285 282 279 280 281 283 288 292 295 295 292 291 291 291 292 294 297 300
255 259 269 288 294 288 286 283 274 269 273 274 271 273 273 267 261 251 243 240 236 235 233 234 240 241 244 250 250 250 254 257 255 256 256 256 262 262 261 267 265 259 262 276 286 290 295 300 304 309 314 319 322 323 321 314 304 295 289 290 292 294 297 297 296 292 287 283 277 277 281 282 284 289 293 294 292 291 294 295 294 294 294 296 299
259 263 276 291 289 280 277 274 269 269 271 269 262 260 263 263 260 251 245 243 239 234 229 230 239 241 243 250 252 249 251 254 253 253 255 258 260 258 261 269 266 262 268 279 286 288 292 298 305 311 315 318 320 320 319 314 305 292 285 286 289 292 294 295 295 291 285 280 274 276 278 277 279 283 287 288 286 288 292 294 293 293 294 295 297
260 268 278 283 265 245 253 264 265 261 263 265 259 252 250 254 260 255 248 245 242 235 227 229 238 239 243 250 252 250 249 252 254 254 256 259 258 257 262 269 267 265 269 279 286 288 292 298 305 311 314 316 318 317 315 312 303 290 283 283 286 289 291 293 293 289 282 275 270 269 271 272 274 278 281 284 286 290 292 292 291 290 291 294 297
259 267 268 259 235 223 232 250 254 249 250 255 255 250 245 247 256 258 254 247 242 235 228 229 236 237 241 246 248 252 257 261 262 260 260 262 261 260 262 265 267 266 267 275 283 287 294 299 303 309 313 314 315 314 313 310 300 289 283 282 286 288 289 290 290 287 280 273 269 266 268 271 272 272 276 281 288 292 292 289 285 285 287 289 292
250 249 242 236 226 217 220 232 238 238 239 243 246 244 241 243 246 253 261 256 244 236 232 234 236 236 237 241 245 252 261 267 268 268 270 269 263 262 264 266 268 266 266 274 280 286 293 298 303 309 311 312 313 312 311 308 299 288 282 282 286 289 289 289 288 285 278 271 269 268 269 271 270 272 277 283 286 286 286 285 282 283 285 285 287
230 222 220 222 218 213 215 222 229 231 233 236 239 238 237 240 240 242 256 260 248 238 236 236 235 233 235 240 244 250 258 267 273 277 282 279 268 264 266 267 266 264 266 273 280 287 294 299 305 309 310 310 311 310 310 306 297 287 281 282 286 288 290 289 286 284 278 270 267 268 269 270 271 274 280 285 284 281 281 282 283 284 286 285 285
217 214 214 214 213 214 215 218 225 228 230 232 235 238 238 238 238 238 243 249 247 238 233 233 234 234 237 243 247 250 255 263 273 281 285 283 275 269 267 266 267 268 270 275 282 290 296 301 306 308 308 309 310 310 309 304 294 286 281 280 284 286 288 288 285 282 280 273 268 267 268 269 271 274 277 279 280 280 282 283 284 286 286 286 287
215 217 216 212 212 216 216 218 224 228 230 233 237 241 239 236 237 237 236 238 240 236 232 233 236 240 245 250 251 249 252 259 268 277 282 280 277 275 272 273 276 276 275 277 282 290 297 302 304 306 306 308 310 310 308 300 290 284 279 278 280 284 287 287 285 282 280 278 273 269 269 269 270 272 273 274 276 279 281 282 282 283 284 287 290
217 219 218 215 215 218 218 220 225 227 229 232 236 239 239 238 237 237 237 236 237 236 234 234 239 245 252 257 255 250 251 257 264 273 278 276 278 280 279 279 280 279 277 277 282 289 296 301 303 304 306 309 311 311 306 297 288 283 279 278 279 283 286 286 283 281 280 280 278 273 271 270 270 271 271 272 273 275 278 279 277 277 281 287 291
219 219 217 216 217 220 220 223 228 229 229 230 234 238 239 239 239 239 239 238 240 241 238 236 240 247 254 259 260 257 254 256 262 270 274 275 279 284 284 283 281 278 276 276 281 288 296 300 302 304 307 310 313 312 306 295 287 283 282 282 283 285 285 284 281 280 281 283 282 279 275 272 271 271 270 271 272 274 277 278 276 276 281 287 291
219 217 214 215 219 221 220 223 228 230 230 231 234 238 239 240 241 241 241 241 242 244 244 242 243 248 253 258 263 264 261 259 262 267 270 274 281 286 287 287 283 279 277 277 280 288 295 299 301 304 307 311 315 314 308 298 291 287 285 285 287 287 285 282 280 280 283 285 284 282 279 275 271 269 270 271 273 275 278 278 278 280 284 288 289
219 213 210 214 218 219 219 222 226 230 231 232 235 239 240 241 242 242 242 243 245 247 250 249 248 251 254 257 262 266 266 264 265 267 269 274 280 285 287 287 286 282 278 277 280 287 294 298 300 303 306 311 316 315 311 304 297 293 290 288 288 286 283 280 280 282 284 285 285 284 283 279 274 271 271 272 274 277 279 280 281 283 285 286 288
Height
10895 10894 10896 10896 10896 10896 10896 10897 10897 10898 10896 10896 10895 10894 10894 10893 10893 10892 10892 10892 10892 10892 10892 10892 10892 10892 10892 10890 10889 10888 10887 10886 10884 10884 10882 10880 10879 10878 10876 10874 10873 10871 10870 10867 10865 10862 10860 10858 10856 10854 10852 10849 10847 10844 10842 10840 10838 10836 10834 10832 10829 10826 10824 10822 10820 10818 10817 10816 10814 10812 10810 10808 10806 10804 10802 10799 10797 10796 10794 10793 10792 10790 10790 10789 10788
10891 10890 10892 10892 10892 10892 10892 10892 10892 10892 10892 10891 10890 10890 10890 10890 10890 10889 10889 10888 10888 10888 10888 10888 10888 10888 10888 10886 10886 10884 10884 10882 10880 10880 10878 10877 10876 10874 10872 10870 10869 10867 10865 10863 10860 10858 10856 10854 10852 10849 10846 10844 10842 10840 10838 10836 10834 10832 10830 10828 10824 10822 10820 10818 10816 10814 10812 10810 10808 10806 10804 10804 10802 10800 10798 10795 10793 10792 10790 10789 10788 10787 10787 10786 10786
10888 10888 10888 10888 10888 10888 10888 10888 10887 10887 10887 10887 10886 10886 10886 10886 10886 10886 10886 10884 10884 10885 10885 10884 10884 10884 10883 10882 10882 10880 10880 10878 10876 10876 10874 10872 10871 10870 10868 10866 10865 10863 10861 10858 10856 10854 10852 10850 10847 10844 10842 10840 10838 10836 10834 10832 10830 10828 10826 10823 10821 10818 10816 10814 10812 10810 10808 10806 10804 10801 10800 10798 10796 10794 10793 10790 10789 10788 10786 10786 10785 10784 10784 10784 10783
10884 10884 10884 10884 10884 10884 10884 10884 10882 10882 10882 10882 10882 10882 10882 10882 10882 10881 10882 10881 10881 10881 10881 10880 10880 10880 10878 10878 10877 10876 10876 10874 10872 10872 10870 10868 10867 10866 10864 10862 10861 10859 10856 10854 10852 10850 10848 10846 10842 10840 10837 10835 10833 10831 10829 10827 10825 10822 10821 10818 10816 10814 10812 10810 10808 10806 10804 10802 10800 10797 10796 10794 10792 10790 10789 10787 10786 10784 10784 10782 10782 10782 10781 10781 10780
10880 10879 10879 10880 10880 10880 10880 10879 10878 10878 10878 10878 10878 10878 10878 10878 10877 10877 10877 10877 10878 10877 10876 10876 10875 10874 10874 10873 10872 10872 10870 10869 10868 10868 10866 10864 10863 10862 10860 10858 10857 10855 10852 10850 10848 10846 10844 10842 10838 10836 10832 10830 10828 10826 10824 10822 10820 10818 10816 10814 10812 10810 10808 10806 10804 10802 10800 10798 10796 10794 10792 10790 10788 10787 10786 10784 10782 10782 10780 10780 10780 10779 10778 10778 10778
10876 10874 10874 10874 10875 10876 10875 10874 10873 10872 10872 10872 10873 10874 10874 10874 10874 10874 10873 10873 10874 10873 10872 10871 10870 10869 10868 10868 10868 10867 10866 10864 10864 10863 10862 10860 10859 10858 10856 10854 10853 10851 10848 10846 10844 10842 10840 10837 10834 10831 10828 10826 10823 10822 10820 10818 10816 10814 10812 10810 10808 10806 10804 10802 10800 10798 10796 10794 10792 10790 10788 10786 10785 10784 10782 10780 10780 10778 10778 10778 10777 10776 10776 10776 10775
10870 10868 10869 10870 10870 10870 10870 10869 10868 10868 10868 10868 10868 10869 10870 10871 10871 10870 10869 10869 10869 10868 10868 10867 10866 10864 10863 10862 10862 10862 10860 10860 10859 10858 10858 10856 10854 10854 10852 10850 10848 10846 10844 10842 10840 10838 10835 10832 10830 10826 10824 10821 10818 10817 10816 10814 10812 10810 10808 10806 10804 10802 10800 10798 10796 10794 10792 10790 10788 10786 10785 10784 10782 10781 10780 10778 10777 10776 10776 10775 10775 10774 10774 10774 10773
10864 10864 10864 10865 10865 10864 10864 10864 10864 10864 10864 10864 10864 10866 10866 10868 10868 10867 10866 10864 10864 10864 10863 10862 10860 10859 10858 10858 10858 10856 10856 10855 10854 10854 10853 10852 10850 10849 10848 10846 10844 10842 10840 10838 10835 10833 10830 10828 10825 10822 10820 10816 10814 10812 10811 10809 10808 10806 10804 10802 10800 10798 10796 10794 10792 10790 10788 10786 10785 10784 10782 10780 10780 10778 10777 10776 10775 10774 10774 10773 10773 10772 10772 10772 10771
10858 10858 10860 10860 10860 10860 10860 10860 10860 10860 10860 10860 10861 10862 10863 10864 10864 10863 10862 10861 10860 10859 10858 10858 10856 10854 10854 10852 10852 10852 10850 10850 10849 10848 10848 10847 10846 10844 10842 10842 10840 10838 10836 10833 10830 10828 10826 10824 10820 10818 10815 10812 10810 10808 10806 10805 10804 10802 10800 10798 10796 10794 10792 10790 10789 10788 10786 10784 10782 10780 10779 10778 10776 10776 10775 10774 10773 10772 10772 10771 10771 10770 10770 10769 10768
10853 10854 10854 10854 10855 10856 10856 10856 10856 10856 10856 10857 10858 10858 10859 10860 10859 10858 10858 10857 10856 10854 10854 10852 10851 10850 10849 10848 10847 10846 10845 10844 10844 10844 10844 10842 10842 10840 10838 10836 10834 10833 10830 10828 10826 10824 10822 10818 10816 10814 10812 10809 10807 10805 10803 10801 10800 10798 10796 10794 10792 10790 10789 10787 10786 10784 10782 10781 10779 10778 10776 10775 10774 10774 10773 10772 10771 10770 10770 10769 10769 10768 10768 10767 10766
10848 10850 10850 10850 10850 10850 10851 10851 10852 10852 10853 10854 10855 10856 10856 10855 10854 10854 10853 10853 10852 10850 10848 10848 10846 10845 10844 10844 10842 10840 10840 10840 10840 10840 10838 10838 10836 10834 10832 10830 10829 10828 10826 10824 10821 10818 10816 10814 10812 10810 10808 10806 10804 10802 10800 10798 10796 10794 10792 10790 10788 10787 10786 10784 10782 10780 10780 10778 10776 10775 10774 10773 10772 10772 10770 10770 10769 10768 10768 10767 10766 10766 10766 10764 10764
10844 10846 10844 10844 10846 10846 10847 10847 10848 10849 10850 10852 10852 10852 10852 10850 10850 10848 10848 10848 10848 10846 10844 10843 10842 10840 10840 10838 10836 10836 10835 10835 10834 10834 10833 10832 10830 10829 10827 10826 10824 10822 10821 10819 10816 10814 10812 10810 10808 10806 10804 10803 10801 10799 10796 10794 10792 10791 10789 10787 10785 10784 10782 10780 10779 10778 10776 10775 10774 10772 10772 10770 10770 10770 10768 10768 10767 10766 10766 10765 10764 10764 10763 10762 10762
10839 10840 10839 10840 10841 10842 10842 10844 10845 10846 10848 10848 10848 10848 10846 10846 10844 10844 10844 10843 10842 10841 10840 10838 10836 10836 10834 10833 10832 10831 10830 10830 10829 10828 10827 10826 10825 10824 10822 10820 10819 10818 10816 10814 10812 10810 10808 10806 10804 10804 10802 10800 10798 10796 10794 10792 10790 10788 10786 10784 10782 10780 10778 10777 10776 10774 10773 10772 10771 10770 10769 10768 10768 10767 10766 10766 10764 10764 10763 10762 10762 10761 10760 10760 10759
10834 10834 10835 10836 10836 10837 10839 10840 10842 10843 10844 10844 10843 10842 10842 10840 10840 10838 10838 10838 10838 10836 10835 10834 10832 10830 10830 10828 10828 10826 10826 10824 10824 10823 10822 10820 10820 10819 10818 10816 10814 10812 10812 10810 10808 10806 10804 10803 10802 10800 10798 10796 10795 10793 10790 10788 10787 10786 10784 10782 10780 10778 10776 10774 10773 10772 10770 10770 10768 10768 10767 10766 10765 10764 10764 10763 10762 10762 10761 10760 10760 10758 10758 10757 10756
10829 10830 10831 10832 10832 10834 10836 10838 10838 10838 10838 10838 10838 10837 10836 10835 10834 10834 10834 10834 10833 10832 10830 10829 10828 10826 10826 10824 10822 10822 10820 10820 10819 10818 10817 10816 10814 10814 10812 10811 10810 10808 10807 10805 10804 10802 10801 10800 10799 10798 10796 10794 10792 10790 10788 10786 10784 10782 10780 10779 10777 10775 10774 10772 10770 10770 10768 10768 10766 10766 10765 10764 10763 10762 10762 10760 10760 10759 10758 10758 10757 10756 10756 10754 10754
10825 10826 10826 10828 10829 10831 10832 10833 10833 10832 10832 10832 10832 10832 10832 10831 10830 10830 10830 10829 10828 10827 10826 10824 10824 10822 10822 10820 10818 10817 10816 10816 10814 10813 10812 10812 10810 10809 10808 10807 10805 10804 10803 10802 10800 10799 10798 10797 10796 10795 10793 10792 10790 10788 10786 10784 10782 10779 10777 10776 10774 10773 10772 10770 10768 10768 10766 10766 10764 10764 10762 10762 10761 10760 10759 10758 10758 10756 10756 10755 10754 10754 10752 10752 10751
10822 10822 10823 10824 10826 10826 10827 10828 10827 10827 10828 10827 10828 10828 10828 10828 10826 10826 10825 10824 10823 10822 10821 10820 10820 10818 10818 10816 10814 10813 10812 10810 10810 10808 10808 10807 10806 10804 10804 10802 10802 10800 10800 10798 10798 10796 10796 10794 10793 10792 10790 10789 10787 10786 10783 10781 10778 10776 10774 10772 10771 10770 10770 10768 10766 10766 10765 10764 10762 10762 10760 10760 10758 10758 10756 10756 10755 10754 10754 10752 10752 10751 10750 10749 10748
10820 10820 10820 10821 10822 10822 10822 10822 10822 10822 10823 10824 10824 10824 10824 10824 10822 10822 10820 10820 10818 10818 10817 10816 10816 10814 10814 10812 10812 10810 10808 10806 10805 10804 10804 10804 10802 10800 10800 10799 10798 10797 10796 10796 10795 10794 10792 10791 10790 10790 10788 10786 10784 10783 10781 10779 10776 10774 10771 10768 10768 10768 10767 10766 10765 10764 10764 10762 10761 10760 10759 10758 10757 10756 10754 10754 10752 10752 10751 10750 10750 10748 10748 10746 10745
10817 10817 10817 10817 10817 10818 10818 10818 10818 10819 10820 10820 10822 10822 10821 10820 10818 10817 10816 10816 10814 10814 10813 10812 10812 10811 10810 10810 10808 10806 10804 10803 10802 10801 10800 10800 10798 10798 10796 10796 10794 10794 10793 10793 10792 10791 10790 10788 10787 10786 10785 10784 10782 10780 10778 10776 10774 10772 10768 10766 10764 10765 10765 10764 10763 10762 10762 10760 10760 10758 10758 10756 10755 10754 10753 10752 10750 10750 10749 10748 10747 10746 10744 10744 10742
10814 10814 10812 10812 10813 10814 10815 10815 10815 10816 10817 10818 10818 10818 10817 10816 10814 10814 10813 10812 10812 10810 10810 10809 10808 10808 10808 10806 10806 10804 10802 10800 10799 10798 10798 10796 10796 10794 10792 10792 10791 10790 10790 10790 10789 10788 10787 10786 10784 10784 10782 10781 10780 10778 10776 10774 10772 10770 10766 10764 10762 10764 10764 10762 10761 10760 10759 10758 10758 10757 10756 10754 10754 10752 10751 10750 10749 10748 10746 10746 10744 10743 10742 10740 10740
10810 10808 10808 10808 10810 10810 10811 10810 10810 10812 10814 10814 10814 10814 10812 10812 10812 10811 10810 10810 10809 10808 10807 10806 10806 10805 10804 10804 10802 10802 10800 10798 10796 10796 10795 10794 10792 10791 10790 10788 10788 10788 10788 10788 10786 10786 10784 10783 10782 10781 10780 10778 10776 10775 10774 10772 10770 10768 10764 10761 10760 10762 10762 10760 10758 10758 10757 10756 10756 10754 10754 10752 10752 10750 10749 10748 10747 10746 10744 10743 10742 10741 10740 10738 10737
10805 10803 10803 10804 10807 10807 10806 10805 10806 10808 10809 10809 10810 10810 10809 10808 10808 10808 10808 10808 10807 10806 10804 10804 10803 10802 10802 10802 10800 10799 10798 10796 10794 10794 10792 10792 10790 10788 10787 10786 10786 10786 10785 10785 10784 10783 10782 10780 10780 10778 10777 10775 10774 10772 10771 10770 10768 10766 10762 10758 10758 10760 10761 10758 10756 10756 10755 10754 10753 10752 10751 10750 10750 10748 10747 10746 10746 10744 10743 10742 10741 10740 10738 10736 10734
10800 10798 10800 10802 10804 10802 10801 10801 10802 10804 10804 10804 10804 10805 10805 10805 10805 10806 10805 10804 10804 10803 10802 10801 10800 10800 10799 10798 10797 10796 10794 10794 10792 10791 10790 10788 10788 10786 10785 10784 10784 10784 10783 10782 10782 10780 10779 10778 10777 10776 10774 10772 10771 10770 10768 10768 10766 10762 10760 10758 10757 10758 10760 10757 10755 10754 10754 10752 10751 10750 10749 10748 10748 10746 10746 10744 10744 10743 10742 10740 10740 10738 10736 10734 10732
10795 10796 10797 10798 10798 10798 10796 10797 10798 10798 10798 10799 10799 10800 10802 10802 10802 10802 10801 10800 10800 10800 10799 10798 10797 10796 10796 10795 10794 10794 10792 10790 10790 10788 10787 10786 10785 10784 10782 10782 10782 10781 10780 10780 10779 10778 10776 10776 10774 10773 10772 10770 10768 10767 10766 10764 10762 10760 10758 10757 10756 10756 10758 10756 10753 10752 10752 10750 10750 10748 10748 10746 10745 10744 10744 10743 10742 10742 10740 10739 10738 10736 10734 10732 10730
10792 10794 10794 10795 10794 10793 10793 10794 10794 10793 10793 10794 10794 10796 10798 10798 10798 10798 10796 10796 10796 10796 10796 10794 10793 10792 10792 10792 10792 10791 10790 10788 10786 10786 10784 10783 10782 10782 10780 10780 10780 10779 10778 10778 10776 10776 10774 10773 10772 10770 10770 10768 10766 10764 10763 10761 10758 10758 10758 10756 10755 10754 10754 10754 10752 10750 10750 10748 10748 10747 10746 10744 10743 10742 10742 10742 10740 10740 10738 10738 10736 10734 10732 10730 10728
10792 10792 10792 10792 10790 10788 10788 10788 10788 10788 10788 10788 10789 10792 10794 10794 10794 10793 10792 10791 10792 10792 10792 10790 10790 10790 10790 10789 10789 10788 10788 10786 10784 10783 10781 10780 10780 10779 10778 10778 10778 10776 10776 10775 10774 10774 10772 10771 10770 10769 10768 10766 10764 10762 10760 10756 10754 10756 10756 10756 10754 10750 10750 10750 10749 10748 10748 10746 10746 10745 10744 10742 10742 10742 10740 10740 10738 10738 10737 10736 10734 10733 10731 10730 10728
10792 10792 10791 10790 10786 10784 10783 10782 10782 10783 10782 10782 10784 10788 10789 10790 10790 10788 10787 10786 10788 10788 10789 10788 10786 10786 10787 10786 10786 10786 10785 10783 10782 10780 10778 10777 10777 10777 10776 10776 10776 10775 10774 10772 10772 10771 10770 10769 10768 10767 10766 10765 10762 10760 10756 10752 10751 10754 10754 10754 10752 10748 10747 10748 10746 10746 10744 10744 10744 10743 10742 10741 10740 10740 10739 10738 10737 10736 10736 10734 10734 10732 10730 10728 10727
10790 10790 10790 10790 10782 10776 10775 10775 10776 10778 10777 10778 10780 10782 10784 10785 10786 10784 10783 10784 10784 10784 10785 10785 10784 10784 10784 10783 10783 10783 10782 10781 10780 10778 10775 10774 10774 10774 10774 10774 10774 10773 10772 10770 10770 10769 10768 10767 10766 10766 10765 10764 10760 10756 10753 10750 10750 10752 10752 10751 10750 10748 10746 10745 10744 10743 10742 10742 10742 10741 10740 10740 10739 10738 10738 10736 10736 10735 10734 10734 10732 10730 10729 10728 10726
10788 10788 10787 10784 10776 10770 10772 10772 10772 10772 10772 10774 10775 10777 10778 10780 10779 10778 10778 10780 10780 10780 10780 10781 10780 10780 10780 10780 10780 10780 10780 10778 10776 10775 10772 10771 10770 10770 10770 10771 10770 10770 10770 10768 10768 10767 10766 10766 10765 10764 10762 10760 10756 10752 10750 10750 10748 10750 10750 10748 10747 10746 10745 10743 10742 10740 10740 10740 10740 10738 10738 10738 10738 10737 10736 10735 10734 10734 10733 10732 10731 10730 10728 10727 10726
10784 10782 10778 10776 10773 10772 10772 10772 10770 10768 10768 10770 10770 10770 10772 10773 10774 10772 10772 10774 10774 10774 10775 10776 10776 10776 10776 10777 10778 10778 10777 10775 10774 10772 10770 10768 10767 10767 10767 10768 10768 10768 10768 10766 10766 10765 10764 10764 10763 10762 10759 10756 10751 10748 10749 10749 10748 10747 10746 10745 10744 10744 10742 10740 10739 10738 10738 10738 10737 10736 10736 10736 10736 10735 10734 10734 10732 10732 10732 10731 10730 10728 10727 10726 10724
10773 10772 10772 10773 10774 10770 10771 10770 10766 10764 10765 10766 10764 10764 10765 10766 10768 10768 10767 10768 10768 10768 10770 10770 10772 10772 10772 10774 10775 10774 10773 10771 10770 10768 10766 10765 10764 10764 10764 10763 10763 10764 10765 10764 10764 10764 10763 10762 10762 10760 10756 10750 10746 10746 10748 10748 10746 10744 10743 10742 10741 10740 10739 10738 10736 10736 10736 10736 10736 10735 10735 10734 10734 10734 10732 10732 10731 10730 10730 10730 10728 10728 10726 10725 10724
10762 10764 10768 10772 10770 10768 10770 10768 10762 10760 10762 10761 10760 10758 10760 10761 10762 10762 10762 10762 10763 10764 10764 10766 10768 10768 10768 10770 10772 10770 10769 10767 10766 10765 10764 10763 10762 10762 10760 10760 10758 10760 10762 10762 10761 10761 10761 10761 10760 10760 10755 10746 10744 10746 10746 10746 10744 10742 10740 10739 10738 10738 10736 10735 10734 10734 10734 10734 10734 10733 10733 10732 10732 10732 10730 10730 10730 10729 10728 10728 10727 10726 10725 10724 10724
10756 10758 10762 10766 10766 10766 10766 10764 10760 10758 10756 10755 10754 10754 10756 10757 10757 10757 10758 10758 10758 10758 10760 10762 10764 10765 10765 10767 10768 10766 10765 10764 10762 10762 10762 10762 10760 10759 10758 10757 10756 10756 10758 10758 10758 10758 10758 10758 10758 10760 10756 10746 10744 10746 10744 10744 10742 10740 10738 10736 10736 10736 10734 10732 10732 10732 10732 10732 10732 10732 10731 10730 10730 10730 10728 10728 10728 10727 10727 10726 10726 10725 10724 10723 10722
10750 10754 10758 10761 10762 10762 10760 10759 10756 10754 10752 10750 10749 10749 10751 10752 10752 10752 10754 10754 10754 10754 10756 10759 10760 10762 10762 10764 10763 10762 10762 10761 10760 10760 10760 10759 10758 10756 10755 10754 10754 10754 10754 10753 10754 10756 10756 10756 10756 10758 10754 10746 10744 10744 10742 10742 10740 10738 10736 10734 10734 10734 10732 10731 10730 10730 10730 10730 10730 10730 10729 10728 10728 10728 10727 10726 10726 10725 10724 10724 10724 10724 10723 10722 10722
10746 10751 10754 10756 10757 10756 10754 10753 10750 10748 10746 10744 10744 10744 10745 10746 10747 10749 10750 10751 10752 10752 10754 10756 10758 10758 10760 10760 10760 10759 10758 10758 10758 10758 10758 10757 10755 10754 10752 10751 10752 10752 10752 10752 10751 10752 10752 10752 10754 10754 10750 10746 10744 10743 10740 10738 10736 10735 10734 10732 10732 10732 10732 10730 10730 10730 10728 10729 10729 10728 10728 10726 10726 10726 10726 10725 10724 10724 10722 10722 10722 10722 10722 10721 10720
10749 10748 10750 10751 10752 10751 10749 10747 10745 10744 10741 10738 10738 10738 10740 10740 10742 10744 10746 10748 10748 10750 10752 10753 10754 10755 10756 10757 10757 10756 10755 10754 10755 10755 10755 10754 10752 10752 10750 10748 10749 10750 10751 10753 10752 10748 10748 10749 10750 10750 10747 10744 10742 10740 10737 10734 10733 10732 10732 10730 10730 10730 10730 10729 10729 10728 10728 10728 10727 10726 10726 10725 10724 10724 10724 10724 10724 10722 10722 10721 10720 10720 10720 10720 10719
10750 10744 10746 10746 10747 10746 10744 10742 10740 10737 10734 10733 10732 10733 10734 10736 10738 10740 10742 10744 10744 10746 10748 10750 10750 10752 10754 10754 10754 10754 10751 10750 10752 10752 10752 10751 10750 10749 10748 10746 10748 10749 10750 10752 10752 10748 10746 10746 10746 10746 10744 10742 10740 10736 10734 10732 10730 10730 10730 10729 10728 10728 10727 10726 10726 10726 10726 10726 10725 10725 10725 10724 10724 10724 10724 10723 10722 10722 10721 10720 10719 10718 10718 10718 10718
10743 10740 10742 10744 10745 10741 10737 10736 10735 10733 10729 10727 10728 10728 10730 10731 10734 10736 10737 10738 10740 10742 10744 10746 10747 10749 10752 10752 10752 10750 10747 10746 10748 10749 10749 10748 10746 10746 10746 10746 10746 10748 10748 10750 10750 10748 10746 10744 10744 10744 10742 10740 10738 10734 10731 10729 10728 10727 10727 10726 10726 10725 10725 10724 10724 10724 10724 10724 10724 10724 10723 10722 10722 10722 10722 10722 10721 10720 10720 10719 10718 10716 10716 10716 10715
10735 10736 10740 10744 10743 10736 10732 10732 10731 10729 10726 10725 10726 10724 10724 10726 10728 10730 10731 10732 10734 10737 10740 10743 10745 10747 10748 10749 10748 10746 10744 10744 10744 10745 10746 10746 10744 10743 10744 10744 10744 10746 10746 10746 10748 10746 10744 10742 10742 10741 10740 10738 10736 10733 10730 10728 10725 10724 10724 10723 10723 10724 10724 10723 10722 10722 10722 10721 10722 10722 10722 10721 10720 10720 10720 10720 10720 10719 10718 10718 10716 10716 10714 10714 10713
10730 10734 10740 10743 10740 10731 10727 10728 10728 10724 10722 10724 10726 10722 10720 10720 10722 10723 10724 10726 10729 10732 10736 10740 10743 10744 10745 10744 10745 10744 10743 10742 10742 10742 10742 10742 10741 10740 10741 10743 10742 10743 10744 10744 10744 10743 10742 10740 10739 10738 10736 10734 10734 10732 10730 10727 10724 10724 10723 10722 10722 10722 10722 10722 10720 10720 10720 10720 10720 10720 10720 10720 10719 10719 10719 10718 10718 10718 10717 10716 10714 10714 10712 10712 10712
10728 10734 10739 10740 10738 10730 10724 10722 10724 10722 10719 10720 10722 10720 10715 10715 10717 10718 10720 10722 10724 10728 10732 10737 10740 10741 10741 10741 10742 10742 10742 10740 10740 10740 10740 10739 10738 10737 10738 10740 10740 10741 10742 10742 10741 10740 10740 10738 10736 10735 10733 10731 10730 10729 10727 10726 10724 10723 10722 10720 10720 10720 10721 10720 10720 10719 10718 10718 10718 10718 10719 10718 10718 10718 10718 10718 10717 10716 10716 10714 10713 10712 10711 10710 10710
10728 10734 10736 10738 10734 10727 10722 10720 10722 10722 10718 10715 10714 10712 10710 10712 10714 10714 10716 10718 10721 10725 10729 10734 10736 10738 10738 10739 10740 10740 10739 10738 10738 10738 10737 10737 10736 10735 10736 10736 10736 10738 10739 10739 10738 10738 10737 10736 10734 10732 10730 10728 10727 10726 10724 10722 10722 10721 10720 10720 10719 10719 10719 10719 10718 10718 10716 10716 10716 10717 10718 10717 10717 10717 10716 10716 10715 10714 10714 10712 10712 10710 10710 10709 10708
10729 10732 10730 10728 10724 10718 10719 10720 10718 10717 10714 10709 10706 10705 10706 10710 10712 10712 10714 10716 10718 10722 10726 10730 10733 10734 10735 10736 10736 10736 10736 10736 10736 10736 10736 10736 10734 10734 10736 10736 10735 10736 10737 10736 10736 10735 10734 10732 10731 10730 10728 10726 10724 10722 10720 10720 10718 10718 10718 10718 10717 10716 10717 10718 10716 10716 10716 10714 10714 10715 10715 10716 10716 10715 10714 10714 10713 10712 10712 10711 10710 10709 10708 10708 10708
10724 10722 10716 10710 10708 10710 10714 10712 10708 10706 10706 10704 10701 10700 10704 10707 10710 10712 10712 10714 10716 10719 10723 10726 10729 10730 10732 10732 10734 10734 10734 10734 10734 10734 10734 10733 10732 10731 10733 10734 10734 10734 10734 10734 10733 10732 10731 10730 10728 10726 10724 10722 10720 10718 10718 10716 10716 10715 10716 10716 10715 10714 10714 10715 10714 10714 10714 10713 10712 10712 10713 10713 10714 10713 10712 10712 10711 10710 10710 10709 10708 10707 10706 10706 10706
10706 10701 10695 10692 10696 10700 10700 10698 10698 10698 10698 10696 10695 10698 10702 10705 10708 10711 10712 10714 10715 10717 10720 10722 10724 10726 10727 10728 10730 10730 10731 10731 10732 10732 10731 10730 10729 10729 10730 10732 10732 10732 10731 10730 10730 10728 10728 10726 10724 10723 10722 10719 10717 10716 10714 10714 10712 10712 10713 10714 10713 10712 10712 10712 10712 10712 10711 10710 10710 10710 10710 10711 10711 10710 10710 10710 10708 10708 10707 10706 10706 10705 10704 10704 10704
10688 10686 10683 10684 10687 10686 10686 10688 10692 10692 10690 10690 10693 10698 10702 10704 10706 10710 10712 10712 10714 10715 10716 10718 10719 10721 10722 10724 10726 10728 10728 10728 10729 10729 10729 10728 10727 10726 10727 10728 10728 10728 10728 10726 10726 10726 10724 10722 10722 10720 10718 10716 10714 10712 10711 10710 10709 10709 10710 10711 10710 10710 10709 10709 10710 10710 10709 10708 10708 10708 10708 10708 10708 10708 10708 10708 10706 10705 10704 10704 10703 10702 10702 10701 10700
10680 10681 10682 10683 10683 10682 10683 10686 10687 10688 10689 10692 10695 10698 10699 10701 10704 10706 10708 10710 10712 10713 10714 10715 10716 10717 10719 10720 10722 10724 10724 10725 10726 10726 10727 10726 10725 10724 10724 10724 10724 10724 10724 10723 10723 10722 10721 10720 10718 10717 10715 10714 10712 10710 10708 10706 10706 10706 10707 10708 10708 10708 10706 10706 10706 10706 10706 10706 10706 10706 10705 10706 10706 10706 10706 10705 10704 10703 10702 10702 10700 10700 10699 10698 10698
10674 10678 10680 10682 10682 10683 10685 10686 10686 10686 10688 10692 10694 10694 10696 10698 10700 10702 10704 10707 10708 10710 10712 10712 10712 10714 10715 10716 10718 10720 10720 10722 10722 10723 10724 10724 10723 10722 10721 10720 10720 10720 10720 10719 10720 10719 10718 10717 10716 10714 10713 10711 10710 10707 10704 10703 10702 10702 10704 10704 10704 10704 10704 10703 10703 10704 10703 10703 10703 10703 10702 10702 10702 10702 10702 10702 10702 10701 10700 10699 10698 10698 10696 10695 10694
10670 10672 10674 10678 10680 10682 10684 10684 10684 10684 10686 10689 10690 10690 10692 10694 10696 10698 10700 10702 10704 10706 10707 10708 10709 10710 10711 10712 10714 10716 10716 10718 10718 10720 10720 10720 10720 10719 10718 10718 10717 10717 10716 10716 10716 10716 10715 10714 10712 10712 10710 10708 10706 10704 10702 10700 10700 10700 10700 10702 10702 10702 10702 10701 10700 10700 10700 10700 10700 10700 10700 10700 10699 10699 10698 10698 10698 10698 10697 10696 10695 10694 10694 10692 10691
10662 10665 10670 10674 10676 10677 10679 10679 10679 10680 10682 10685 10685 10686 10687 10688 10690 10692 10694 10696 10699 10700 10702 10704 10704 10706 10707 10708 10710 10712 10713 10714 10714 10716 10716 10716 10716 10716 10714 10714 10714 10714 10713 10713 10713 10712 10712 10710 10710 10710 10708 10706 10704 10702 10700 10698 10698 10698 10699 10699 10700 10700 10699 10698 10698 10698 10698 10698 10698 10698 10697 10696 10696 10696 10695 10694 10694 10694 10694 10693 10692 10690 10690 10688 10688
10654 10658 10665 10669 10670 10672 10674 10674 10674 10674 10676 10679 10680 10680 10681 10682 10684 10686 10690 10692 10695 10696 10698 10699 10700 10702 10704 10705 10706 10708 10708 10710 10710 10711 10712 10712 10712 10712 10711 10710 10710 10710 10710 10710 10709 10708 10708 10708 10708 10706 10706 10704 10702 10700 10698 10697 10696 10697 10697 10697 10697 10697 10696 10696 10696 10694 10694 10694 10694 10694 10694 10694 10693 10692 10691 10690 10690 10690 10690 10689 10688 10687 10686 10684 10684